Regional Weather Roundup
Issued by NWS Newport/Morehead, NC

Home | Current Version | Previous Version | Text Only | Print | Product List | Glossary On
Versions: 1 2 3 4 5 6 7 8 9 10 11 12 13 14 15 16 17 18 19 20 21 22 23 24 25 26 27 28 29 30 31 32 33 34 35 36 37 38 39 40 41 42 43 44 45 46 47 48 49 50
000
ASUS42 KMHX 172325
RWRMHX
WEATHER ROUNDUP FOR EASTERN NORTH CAROLINA
NATIONAL WEATHER SERVICE NEWPORT/MOREHEAD CITY NC
600 PM EST FRI NOV 17 2017

NOTE: "FAIR" INDICATES FEW OR NO CLOUDS BELOW 12,000 FEET
WITH NO SIGNIFICANT WEATHER AND/OR OBSTRUCTIONS TO VISIBILITY

NCZ015>017-031-032-045>047-102-103-180000-
NORTH COAST

CITY           SKY/WX    TMP DP  RH WIND       PRES   REMARKS
EDENTON        PTCLDY    44  39  83 CALM      30.19S
ELIZABETH CITY PTCLDY    49  37  63 N5        30.18R
KITTY HAWK     CLOUDY    47  36  66 CALM      30.16R
MANTEO         MOCLDY    42  38  86 N3        30.17S

$$

NCZ045>047-081-094-103-104-180000-
CENTRAL COAST

CITY           SKY/WX    TMP DP  RH WIND       PRES   REMARKS
FRISCO         MOCLDY    50  40  68 VRB5      30.17R

$$

NCZ095-097-098-100-101-180000-
SOUTHERN COAST

CITY           SKY/WX    TMP DP  RH WIND       PRES   REMARKS
BEAUFORT       PTCLDY    47  40  76 E3        30.18R
CEDAR ISLAND   NOT AVBL
JACKSONVILLE   CLEAR     47  41  80 CALM      30.17R
PINEY ISLAND   NOT AVBL
WILMINGTON     CLEAR     48  41  76 CALM      30.17R


$$

NCZ011>013-027>030-043-044-078>080-089-090>093-098-180000-
COASTAL PLAIN

CITY           SKY/WX    TMP DP  RH WIND       PRES   REMARKS
AHOSKIE        PTCLDY    38  36  94 CALM      30.18F
CLINTON        CLEAR     46  39  78 CALM      30.18R
ELIZABETHTOWN  NOT AVBL
GOLDSBORO      CLEAR     45  38  75 E3        30.15S
GREENVILLE     CLEAR     43  37  81 CALM      30.20R
HAVELOCK       NOT AVBL
KENANSVILLE    CLEAR     41  37  87 CALM      30.18S
KINSTON        CLEAR     43  37  81 CALM      30.19R
NEW BERN       PTCLDY    45  41  86 CALM      30.19R
RICHLANDS      CLEAR     44  40  85 CALM      30.19R
ROCKY MOUNT    CLEAR     43  38  82 CALM      30.18R
WASHINGTON     CLEAR     44  39  85 CALM      30.19R
WHITEVILLE     CLEAR     47  39  73 CALM      30.16S

$$

AMZ130-135-150-152-154-156-158-170-250-252-270-ANZ085-086-088-633-658-670-180000-
MARINE OBSERVATIONS

STATION/POSITION TIME  TEMP    WIND        PRES    WAVE   SWELL
                       AIR SEA DIR/SP/G            HT/PER HT/PER
                 (UTC) (F)     (DEG/KT/KT) (MB)    (FT/S) (FT/S)
CHESAPEAKE LIGHT NOT AVBL
64 E VA BEACH    2250   52 61  330/ 16/ 21 1021.2    5/11   3/11
DUCK             NOT AVBL
2 E DUCK         2300      60                N/A     4/13   2/13
OREGON INLET     NOT AVBL
13E OREGON INLT  2248      63                N/A     5/ 7   2/13
HATTERAS CG      NOT AVBL
DIAMOND BUOY     2310   54 65   10/ 12/ 16 1021.7
CAPE LOOKOUT     2300   51      20/  7/  7 1022.0
BEAUFORT LAB     NOT AVBL
30 SE NEW RVR IN 2308   56 70   70/  6/ 10 1021.6
30 SE NEW RVR IN 2300      70                N/A     3/13   2/13
27 SE WRIGHTSVLE 2308   56 68   30/  4/ 10 1021.3
5 SE WRIGHTSVLE  2308   57 64   40/  2/  6 1021.2
225 S CAPE HAT   2250   68 77   40/ 14/ 17 1018.5    7/ 7   7/ 7
41 SE CHARLESTON 2310   63 76   40/  8/ 14 1020.3

$$




USA.gov is the U.S. government's official web portal to all federal, state and local government web resources and services.